Vertical_Velocity
-4 -2 -2 -0 -0 -0 -1 -2 -1 -1 1 -1 -1 -0 0 1 0 1 -1 1 2 2 -2 -1 -1 -2 1 3 0 -1 -1 -1 -2 -1 -1 -1 2 0 1 -3 1 -1 2
-2 -1 -2 -1 -2 -2 -2 -1 -1 -1 0 -1 -1 2 1 1 0 -1 -0 1 2 1 0 -1 -1 2 -3 -0 1 0 0 -2 -1 -1 -1 -0 3 1 0 -1 -0 -1 -1
0 -3 0 2 -1 -0 -1 1 -1 -0 -1 -1 -2 2 1 1 1 2 1 2 2 1 4 1 1 -1 -0 -1 -0 1 1 0 -0 0 -1 -3 2 -0 -2 -3 -1 -0 -1
7 -3 -2 2 -0 -1 -0 -1 -1 1 -1 0 -1 2 -0 1 0 3 1 3 3 1 1 1 2 1 1 0 -1 1 0 -1 0 0 -2 0 -2 0 -2 -1 -0 1 -1
1 0 0 0 1 -0 -1 0 -0 -2 -2 0 2 -1 1 1 1 1 2 1 0 0 1 -2 1 -1 -1 0 0 -1 2 1 0 1 -3 0 -1 2 -3 0 -0 1 -1
4 2 -2 -1 -0 3 1 0 -1 -2 1 -2 2 1 1 3 4 -0 0 3 -2 -1 -2 2 1 2 -1 2 0 -0 -0 0 -0 1 -1 1 -1 1 0 1 -1 -2 0
2 2 0 1 -1 0 1 1 0 -1 0 1 -0 1 -1 0 3 -0 1 1 -2 -0 2 0 -0 -1 -1 1 -2 1 -1 0 -1 -1 -1 -0 -0 10 -1 0 -1 1 -1
2 1 0 2 2 0 3 -1 -0 -2 -0 2 -1 1 -1 1 1 5 4 6 4 -1 -0 -1 -1 1 2 -2 0 -0 1 1 -2 -1 1 1 4 2 -1 1 1 1 1
5 1 1 1 3 1 4 1 -0 0 -0 1 -1 1 2 1 0 -2 -1 1 7 3 0 1 -0 3 2 -0 2 -2 2 -1 -0 -0 0 4 4 3 -1 -1 -0 0 1
4 2 3 4 3 1 2 1 2 1 -0 -2 3 1 1 -1 -0 2 9 10 1 0 -2 -1 -5 1 -3 -1 -6 3 2 -0 -1 -0 3 2 3 -1 2 1 -1 1 0
-1 2 2 3 2 5 3 1 1 1 1 6 2 -1 2 3 0 1 -0 -0 -0 -2 -2 -1 0 1 2 0 -5 -13 5 -1 1 2 1 14 2 0 -1 -0 0 0 -0
0 -1 2 3 3 2 5 3 1 3 1 0 -0 2 -3 -2 -2 -2 -6 -2 -1 1 0 1 -3 -2 2 0 10 -2 -14 -1 2 1 -5 11 1 1 0 1 1 -1 -1
2 4 2 -4 -1 -2 1 1 -0 -1 -1 3 1 -1 0 -1 -3 1 -1 5 3 1 -0 1 -1 -0 -2 -1 -3 -4 -9 -8 1 0 -1 -4 -5 4 2 -1 -2 -1 -1
9 7 -2 2 2 0 -1 -1 1 -3 -3 -0 1 0 -1 -1 -2 0 2 1 1 -2 -2 0 -1 -1 -3 2 0 0 0 0 6 3 -5 3 1 -4 -0 3 0 1 -0
-4 4 -5 2 -2 3 1 1 0 0 0 -2 1 1 1 -0 -1 -2 0 -1 2 -1 2 -3 -1 -1 -0 -2 0 1 5 -2 -2 -1 -0 3 0 1 3 2 4 3 1
4 5 -3 0 2 -0 1 0 -1 -1 2 -0 -0 2 -2 1 -1 -0 -3 -1 -1 2 1 -0 -0 0 -1 2 1 -1 -1 4 0 -0 -3 1 -3 -1 -3 3 6 4 3
0 -1 0 -3 6 -3 -0 2 2 -0 1 2 0 -1 3 1 1 -1 -2 -1 -0 -0 0 0 -1 0 -2 -2 2 1 2 -3 -3 -3 -3 -1 3 -1 -2 0 6 6 -0
15 -3 3 -4 -3 1 -4 0 -2 3 -0 2 0 1 0 1 1 -2 -2 -2 -1 -1 1 0 0 -3 1 1 -1 -1 -2 1 -2 1 4 -5 -4 2 0 -4 4 -5 4
2 -0 -2 -1 -7 -0 3 1 -2 -1 4 -0 2 -1 2 1 1 1 0 -1 0 -0 0 2 -2 6 0 -0 1 -1 -1 0 1 4 -3 -2 -2 2 1 -4 2 7 19
8 7 4 10 -0 -2 6 5 3 6 -1 3 2 0 -1 1 2 1 0 1 0 -0 0 -0 1 -2 0 -0 -2 -2 1 1 2 1 1 0 -1 -0 -0 -0 -1 -1 -3
10 4 5 2 1 -11 -1 4 6 -0 -4 1 -1 4 1 1 1 0 1 -0 1 2 1 1 -1 2 -2 0 -1 1 -1 0 -0 1 0 1 1 0 1 1 -1 -0 1
-2 -3 1 -0 2 -3 1 5 -5 -1 3 4 1 3 1 0 -1 1 2 0 0 -1 1 1 2 -8 -0 -0 -1 2 -1 3 3 1 0 -0 -0 1 -2 -2 -2 1 -1
1 -2 -6 -3 2 4 7 -1 -2 19 9 5 3 -2 -3 2 1 -1 -2 0 -0 0 1 2 2 2 -3 -2 3 -3 -4 -1 -1 1 2 2 0 -1 0 -1 -0 -1 -0
-4 -2 11 7 2 1 1 5 -5 -13 -11 -7 2 0 -1 1 1 0 3 2 2 1 1 3 2 3 3 1 1 0 0 -1 -4 -2 0 0 1 1 -0 -0 -1 -0 0
-1 -7 2 9 3 3 2 2 3 12 13 5 -1 2 2 -1 1 0 -0 1 0 0 1 3 0 -1 1 2 -0 -2 -0 -1 0 -3 -0 -1 1 0 1 1 1 -1 -1
4 -2 3 0 2 4 3 1 7 4 -3 -4 2 -3 -3 1 1 0 -1 0 1 2 1 2 3 2 1 1 2 1 0 -2 -2 -2 -2 -1 0 -0 -0 -0 1 1 0
Height
1522 1526 1530 1533 1536 1539 1542 1545 1547 1549 1552 1554 1556 1558 1560 1562 1564 1565 1567 1569 1570 1571 1571 1573 1575 1576 1577 1578 1578 1580 1582 1583 1583 1585 1585 1587 1587 1587 1587 1587 1588 1588 1588
1520 1524 1529 1532 1535 1539 1542 1545 1548 1550 1552 1555 1557 1559 1561 1564 1565 1567 1569 1571 1573 1574 1574 1575 1577 1578 1580 1581 1582 1583 1585 1586 1587 1587 1588 1589 1590 1590 1591 1590 1591 1591 1591
1519 1523 1528 1532 1535 1539 1542 1545 1548 1550 1553 1555 1559 1561 1562 1565 1566 1569 1570 1572 1574 1576 1577 1578 1579 1581 1582 1583 1585 1586 1587 1589 1589 1590 1591 1592 1593 1593 1594 1594 1594 1594 1594
1518 1522 1527 1532 1535 1538 1542 1545 1548 1551 1554 1557 1559 1561 1564 1566 1568 1569 1572 1574 1575 1577 1578 1581 1581 1582 1585 1586 1588 1589 1590 1591 1592 1593 1593 1594 1595 1597 1596 1597 1596 1597 1597
1518 1522 1526 1531 1535 1539 1542 1545 1548 1551 1555 1558 1560 1563 1565 1567 1569 1571 1573 1574 1576 1578 1580 1582 1583 1585 1587 1589 1591 1592 1593 1594 1595 1595 1597 1597 1598 1598 1599 1599 1598 1599 1599
1516 1521 1526 1531 1535 1539 1542 1545 1549 1552 1556 1559 1562 1564 1565 1568 1570 1572 1574 1576 1578 1580 1582 1584 1586 1588 1590 1591 1593 1594 1596 1596 1597 1598 1599 1600 1600 1601 1602 1601 1601 1601 1602
1514 1521 1526 1531 1535 1539 1543 1546 1550 1553 1556 1560 1562 1565 1567 1569 1571 1573 1576 1578 1580 1582 1584 1587 1589 1590 1592 1594 1595 1597 1598 1599 1600 1601 1601 1603 1603 1604 1605 1605 1604 1604 1604
1514 1520 1526 1531 1535 1539 1543 1546 1550 1554 1557 1560 1562 1565 1568 1570 1573 1576 1578 1580 1582 1584 1586 1588 1591 1593 1594 1596 1598 1599 1600 1602 1603 1604 1605 1606 1606 1608 1608 1608 1607 1607 1607
1515 1521 1525 1530 1535 1539 1543 1546 1550 1554 1558 1561 1563 1566 1569 1571 1574 1577 1579 1582 1584 1587 1590 1591 1593 1594 1596 1597 1600 1602 1603 1604 1605 1606 1608 1608 1609 1611 1611 1611 1610 1611 1610
1516 1521 1525 1529 1534 1538 1542 1546 1550 1553 1557 1560 1563 1567 1570 1572 1575 1578 1582 1583 1586 1588 1590 1593 1595 1596 1598 1601 1602 1604 1605 1607 1607 1608 1610 1611 1612 1613 1613 1613 1613 1614 1614
1516 1521 1524 1528 1533 1537 1541 1545 1549 1553 1556 1561 1563 1566 1569 1572 1576 1579 1582 1584 1586 1589 1591 1593 1595 1597 1600 1600 1602 1602 1609 1609 1610 1611 1612 1614 1615 1615 1616 1616 1616 1616 1617
1511 1517 1521 1526 1531 1536 1540 1543 1548 1552 1556 1560 1563 1566 1570 1572 1575 1577 1581 1584 1587 1590 1592 1595 1596 1599 1601 1602 1602 1605 1609 1612 1613 1613 1614 1616 1617 1617 1618 1618 1619 1619 1619
1505 1513 1519 1524 1530 1534 1538 1542 1546 1551 1555 1559 1562 1565 1569 1572 1575 1579 1583 1586 1589 1592 1594 1596 1599 1601 1603 1605 1605 1608 1612 1614 1614 1614 1615 1616 1618 1619 1619 1620 1621 1621 1621
1505 1509 1516 1521 1526 1532 1536 1541 1544 1549 1553 1557 1562 1566 1569 1572 1575 1580 1584 1587 1590 1593 1596 1598 1601 1603 1606 1607 1610 1611 1613 1615 1616 1617 1618 1620 1619 1620 1621 1622 1622 1623 1623
1502 1507 1513 1519 1524 1529 1534 1538 1543 1548 1553 1558 1562 1565 1569 1572 1576 1580 1585 1588 1591 1594 1597 1600 1602 1605 1608 1610 1613 1615 1615 1616 1618 1618 1620 1620 1621 1622 1623 1623 1623 1624 1625
1499 1503 1509 1517 1522 1527 1531 1536 1541 1546 1551 1557 1562 1566 1570 1574 1578 1581 1585 1588 1592 1595 1598 1601 1604 1607 1610 1613 1614 1616 1618 1618 1620 1620 1621 1621 1622 1622 1623 1623 1624 1625 1626
1495 1500 1507 1513 1519 1525 1531 1535 1540 1546 1552 1556 1562 1566 1571 1575 1579 1582 1586 1589 1593 1596 1599 1602 1606 1609 1612 1614 1616 1618 1619 1620 1621 1623 1623 1623 1623 1624 1624 1624 1624 1625 1626
1490 1496 1504 1509 1516 1521 1528 1534 1540 1545 1550 1556 1561 1566 1570 1575 1579 1582 1586 1590 1593 1597 1600 1603 1606 1609 1612 1615 1616 1618 1621 1623 1623 1625 1625 1627 1628 1627 1627 1627 1625 1623 1628
1487 1492 1499 1505 1512 1519 1526 1533 1539 1544 1550 1555 1560 1565 1570 1574 1579 1582 1586 1590 1593 1597 1601 1604 1606 1610 1612 1615 1617 1619 1622 1624 1625 1627 1627 1629 1630 1631 1630 1631 1630 1628 1629
1485 1490 1495 1502 1509 1517 1522 1530 1536 1541 1550 1555 1560 1564 1569 1573 1578 1582 1586 1590 1594 1597 1600 1603 1606 1609 1612 1615 1617 1620 1623 1625 1626 1628 1629 1630 1632 1633 1633 1634 1635 1636 1636
1482 1486 1491 1498 1504 1513 1519 1526 1534 1540 1547 1553 1558 1563 1567 1572 1577 1581 1586 1589 1593 1596 1599 1602 1605 1608 1611 1614 1616 1620 1622 1625 1627 1628 1629 1631 1632 1633 1634 1635 1636 1637 1637
1476 1483 1489 1495 1501 1509 1516 1523 1529 1535 1542 1549 1555 1561 1566 1570 1575 1580 1584 1588 1591 1594 1598 1600 1603 1605 1609 1612 1615 1618 1622 1627 1627 1628 1629 1631 1632 1632 1633 1635 1636 1637 1638
1472 1478 1484 1491 1498 1504 1511 1518 1526 1533 1540 1546 1551 1557 1562 1567 1572 1577 1582 1587 1590 1593 1596 1599 1602 1605 1607 1610 1613 1616 1619 1622 1625 1627 1628 1630 1631 1632 1633 1634 1636 1636 1637
1467 1475 1480 1487 1494 1499 1506 1513 1519 1523 1531 1538 1545 1551 1557 1564 1569 1574 1579 1584 1588 1591 1595 1598 1601 1604 1607 1609 1611 1613 1616 1618 1621 1625 1628 1629 1630 1631 1632 1633 1635 1636 1636
1463 1470 1476 1483 1490 1496 1502 1509 1516 1520 1526 1533 1540 1548 1553 1560 1566 1571 1576 1581 1585 1589 1593 1596 1599 1602 1605 1608 1610 1612 1614 1616 1618 1620 1622 1625 1628 1629 1630 1632 1633 1634 1635
1459 1466 1471 1479 1486 1493 1498 1506 1511 1516 1520 1528 1535 1542 1548 1555 1560 1566 1571 1576 1581 1585 1589 1593 1597 1600 1603 1606 1608 1609 1612 1614 1616 1618 1620 1622 1625 1626 1628 1629 1631 1632 1633